Time,TemperatureF,DewpointF,PressureIn,WindDirection,WindDirectionDegrees,WindSpeedMPH,WindSpeedGustMPH,Humidity,HourlyPrecipIn,Conditions,Clouds,dailyrainin,SoftwareType,DateUTC
2013-07-11 00:10:00,73.4,71.0,29.93,WSW,238,0.0,2.0,92,0.00,,,0.00,weatherlink.com 1.10,2013-07-11 04:10:00,
2013-07-11 00:25:00,73.1,71.0,29.92,South,181,0.0,1.0,92,0.00,,,0.00,weatherlink.com 1.10,2013-07-11 04:25:00,
2013-07-11 00:40:00,73.1,70.0,29.91,WSW,251,0.0,2.0,91,0.00,,,0.00,weatherlink.com 1.10,2013-07-11 04:40:00,
2013-07-11 00:55:00,73.1,70.0,29.90,West,263,0.0,1.0,91,0.00,,,0.00,weatherlink.com 1.10,2013-07-11 04:55:00,
2013-07-11 01:10:00,73.0,70.0,29.91,WSW,258,0.0,2.0,91,0.00,,,0.00,weatherlink.com 1.10,2013-07-11 05:10:00,
2013-07-11 01:25:00,72.9,71.0,29.90,SSW,198,0.0,2.0,92,0.00,,,0.00,weatherlink.com 1.10,2013-07-11 05:25:00,
2013-07-11 01:40:00,72.7,70.0,29.90,South,189,0.0,1.0,92,0.00,,,0.00,weatherlink.com 1.10,2013-07-11 05:40:00,
2013-07-11 01:55:00,72.6,70.0,29.90,WSW,254,0.0,1.0,92,0.00,,,0.00,weatherlink.com 1.10,2013-07-11 05:55:00,
2013-07-11 02:10:00,72.5,70.0,29.90,WSW,245,0.0,1.0,92,0.00,,,0.00,weatherlink.com 1.10,2013-07-11 06:10:00,
2013-07-11 02:25:00,72.4,70.0,29.89,SW,227,0.0,2.0,93,0.00,,,0.00,weatherlink.com 1.10,2013-07-11 06:25:00,
2013-07-11 02:40:00,72.4,70.0,29.89,West,273,0.0,2.0,92,0.00,,,0.00,weatherlink.com 1.10,2013-07-11 06:40:00,
2013-07-11 02:55:00,72.6,70.0,29.89,South,188,0.0,2.0,92,0.00,,,0.00,weatherlink.com 1.10,2013-07-11 06:55:00,
2013-07-11 03:10:00,72.5,70.0,29.89,South,191,0.0,2.0,92,0.00,,,0.00,weatherlink.com 1.10,2013-07-11 07:10:00,
2013-07-11 03:25:00,72.2,70.0,29.89,South,176,0.0,1.0,93,0.00,,,0.00,weatherlink.com 1.10,2013-07-11 07:25:00,
2013-07-11 03:40:00,71.8,70.0,29.89,South,178,0.0,2.0,94,0.00,,,0.00,weatherlink.com 1.10,2013-07-11 07:40:00,
2013-07-11 03:55:00,71.7,70.0,29.90,South,178,0.0,0.0,94,0.00,,,0.00,weatherlink.com 1.10,2013-07-11 07:55:00,
2013-07-11 04:10:00,71.8,70.0,29.90,SSW,200,1.0,3.0,94,0.00,,,0.00,weatherlink.com 1.10,2013-07-11 08:10:00,
2013-07-11 04:25:00,72.0,70.0,29.90,South,180,0.0,2.0,93,0.00,,,0.00,weatherlink.com 1.10,2013-07-11 08:25:00,
2013-07-11 04:40:00,72.0,70.0,29.89,South,187,0.0,2.0,93,0.00,,,0.00,weatherlink.com 1.10,2013-07-11 08:40:00,
2013-07-11 04:55:00,72.0,70.0,29.90,SE,145,0.0,2.0,93,0.00,,,0.00,weatherlink.com 1.10,2013-07-11 08:55:00,
2013-07-11 05:10:00,71.9,70.0,29.89,South,184,1.0,2.0,94,0.00,,,0.00,weatherlink.com 1.10,2013-07-11 09:10:00,
2013-07-11 05:25:00,71.6,70.0,29.89,SSW,198,2.0,2.0,94,0.00,,,0.00,weatherlink.com 1.10,2013-07-11 09:25:00,
2013-07-11 05:40:00,71.4,70.0,29.89,South,187,0.0,2.0,95,0.00,,,0.00,weatherlink.com 1.10,2013-07-11 09:40:00,
2013-07-11 05:55:00,71.2,70.0,29.90,SSW,198,2.0,4.0,95,0.00,,,0.00,weatherlink.com 1.10,2013-07-11 09:55:00,
2013-07-11 06:10:00,71.2,70.0,29.90,South,173,0.0,2.0,96,0.00,,,0.00,weatherlink.com 1.10,2013-07-11 10:10:00,
2013-07-11 06:25:00,71.2,70.0,29.90,South,188,0.0,4.0,96,0.00,,,0.00,weatherlink.com 1.10,2013-07-11 10:25:00,
2013-07-11 06:40:00,71.3,70.0,29.90,South,187,0.0,4.0,96,0.00,,,0.00,weatherlink.com 1.10,2013-07-11 10:40:00,
2013-07-11 06:55:00,71.4,70.0,29.91,SSW,209,1.0,3.0,96,0.00,,,0.00,weatherlink.com 1.10,2013-07-11 10:55:00,
2013-07-11 07:10:00,71.5,70.0,29.91,South,178,0.0,1.0,96,0.00,,,0.00,weatherlink.com 1.10,2013-07-11 11:10:00,
2013-07-11 07:25:00,71.7,71.0,29.92,SSW,211,0.0,5.0,96,0.00,,,0.00,weatherlink.com 1.10,2013-07-11 11:25:00,
2013-07-11 07:40:00,71.7,71.0,29.92,WSW,240,0.0,2.0,96,0.00,,,0.00,weatherlink.com 1.10,2013-07-11 11:40:00,
2013-07-11 07:55:00,71.9,71.0,29.93,West,274,0.0,1.0,95,0.00,,,0.00,weatherlink.com 1.10,2013-07-11 11:55:00,
2013-07-11 08:10:00,71.9,71.0,29.93,SW,230,0.0,2.0,95,0.00,,,0.00,weatherlink.com 1.10,2013-07-11 12:10:00,
2013-07-11 08:25:00,71.9,71.0,29.93,SSW,205,0.0,3.0,95,0.00,,,0.00,weatherlink.com 1.10,2013-07-11 12:25:00,
2013-07-11 08:40:00,72.1,71.0,29.93,WSW,238,0.0,2.0,95,0.00,,,0.00,weatherlink.com 1.10,2013-07-11 12:40:00,
2013-07-11 08:55:00,72.2,71.0,29.93,SW,230,0.0,3.0,95,0.00,,,0.00,weatherlink.com 1.10,2013-07-11 12:55:00,
2013-07-11 09:25:00,72.6,71.0,29.93,SW,235,0.0,2.0,94,0.00,,,0.00,weatherlink.com 1.10,2013-07-11 13:25:00,
2013-07-11 09:40:00,72.9,71.0,29.93,WSW,247,0.0,3.0,94,0.00,,,0.00,weatherlink.com 1.10,2013-07-11 13:40:00,
2013-07-11 09:55:00,73.4,71.0,29.93,West,280,1.0,3.0,93,0.00,,,0.00,weatherlink.com 1.10,2013-07-11 13:55:00,
2013-07-11 10:41:00,75.2,72.0,29.93,WNW,294,1.0,2.0,89,0.00,,,0.00,weatherlink.com 1.10,2013-07-11 14:41:00,
2013-07-11 10:56:00,76.0,72.0,29.93,WSW,256,0.0,2.0,87,0.00,,,0.00,weatherlink.com 1.10,2013-07-11 14:56:00,
2013-07-11 11:11:00,76.6,72.0,29.92,South,190,0.0,4.0,86,0.00,,,0.00,weatherlink.com 1.10,2013-07-11 15:11:00,
2013-07-11 11:26:00,77.4,72.0,29.92,NW,319,0.0,1.0,84,0.00,,,0.00,weatherlink.com 1.10,2013-07-11 15:26:00,
2013-07-11 11:41:00,78.0,72.0,29.92,SSW,207,0.0,2.0,82,0.00,,,0.00,weatherlink.com 1.10,2013-07-11 15:41:00,
2013-07-11 11:56:00,78.7,72.0,29.92,ENE,74,0.0,3.0,80,0.00,,,0.00,weatherlink.com 1.10,2013-07-11 15:56:00,
2013-07-11 12:11:00,79.1,72.0,29.92,SSW,211,0.0,1.0,79,0.00,,,0.00,weatherlink.com 1.10,2013-07-11 16:11:00,
2013-07-11 12:26:00,79.7,72.0,29.91,SSW,211,0.0,1.0,77,0.00,,,0.00,weatherlink.com 1.10,2013-07-11 16:26:00,
2013-07-11 12:41:00,79.6,73.0,29.91,SW,227,1.0,3.0,79,0.00,,,0.00,weatherlink.com 1.10,2013-07-11 16:41:00,
2013-07-11 12:56:00,78.8,73.0,29.91,South,182,0.0,3.0,81,0.00,,,0.00,weatherlink.com 1.10,2013-07-11 16:56:00,
2013-07-11 13:11:00,78.1,73.0,29.90,SSW,193,0.0,2.0,85,0.00,,,0.00,weatherlink.com 1.10,2013-07-11 17:11:00,
2013-07-11 13:26:00,77.3,74.0,29.90,SSW,192,0.0,1.0,89,0.00,,,0.00,weatherlink.com 1.10,2013-07-11 17:26:00,
2013-07-11 13:41:00,77.2,74.0,29.90,South,189,0.0,1.0,90,0.00,,,0.00,weatherlink.com 1.10,2013-07-11 17:41:00,
2013-07-11 13:56:00,77.5,74.0,29.89,ESE,120,1.0,4.0,88,0.00,,,0.00,weatherlink.com 1.10,2013-07-11 17:56:00,
2013-07-11 14:11:00,77.9,75.0,29.88,South,173,0.0,3.0,89,0.00,,,0.00,weatherlink.com 1.10,2013-07-11 18:11:00,
2013-07-11 14:26:00,78.1,74.0,29.88,ESE,110,1.0,4.0,88,0.00,,,0.00,weatherlink.com 1.10,2013-07-11 18:26:00,
2013-07-11 15:11:00,79.7,73.0,29.87,SSW,200,1.0,4.0,81,0.00,,,0.00,weatherlink.com 1.10,2013-07-11 19:11:00,
2013-07-11 15:41:00,80.5,74.0,29.86,SSW,207,0.0,5.0,81,0.00,,,0.00,weatherlink.com 1.10,2013-07-11 19:41:00,
2013-07-11 16:11:00,79.6,74.0,29.86,WSW,240,2.0,2.0,84,0.01,,,0.01,weatherlink.com 1.10,2013-07-11 20:11:00,
2013-07-11 16:26:00,77.0,73.0,29.87,NW,320,0.0,2.0,88,0.04,,,0.04,weatherlink.com 1.10,2013-07-11 20:26:00,
2013-07-11 16:41:00,74.2,71.0,29.87,East,97,0.0,2.0,89,0.08,,,0.08,weatherlink.com 1.10,2013-07-11 20:41:00,
2013-07-11 17:11:00,72.2,71.0,29.86,WSW,251,1.0,1.0,95,0.07,,,0.08,weatherlink.com 1.10,2013-07-11 21:11:00,
2013-07-11 17:26:00,72.6,71.0,29.85,SW,223,0.0,3.0,96,0.05,,,0.09,weatherlink.com 1.10,2013-07-11 21:26:00,
2013-07-11 17:41:00,72.8,72.0,29.86,WSW,257,0.0,1.0,96,0.01,,,0.09,weatherlink.com 1.10,2013-07-11 21:41:00,
2013-07-11 17:56:00,72.9,72.0,29.86,WSW,257,0.0,1.0,96,0.01,,,0.09,weatherlink.com 1.10,2013-07-11 21:56:00,
2013-07-11 18:11:00,73.1,72.0,29.85,WSW,257,0.0,1.0,97,0.01,,,0.09,weatherlink.com 1.10,2013-07-11 22:11:00,
2013-07-11 18:26:00,73.3,72.0,29.85,West,273,0.0,1.0,96,0.00,,,0.09,weatherlink.com 1.10,2013-07-11 22:26:00,
2013-07-11 18:41:00,73.5,73.0,29.86,West,273,0.0,1.0,97,0.00,,,0.09,weatherlink.com 1.10,2013-07-11 22:41:00,
2013-07-11 19:11:00,73.0,72.0,29.85,West,273,0.0,0.0,96,0.00,,,0.09,weatherlink.com 1.10,2013-07-11 23:11:00,
2013-07-11 19:26:00,72.8,72.0,29.86,West,273,0.0,0.0,96,0.00,,,0.09,weatherlink.com 1.10,2013-07-11 23:26:00,
2013-07-11 19:41:00,72.2,71.0,29.86,SSW,200,0.0,3.0,95,0.00,,,0.09,weatherlink.com 1.10,2013-07-11 23:41:00,
2013-07-11 19:56:00,71.7,71.0,29.87,SSW,205,0.0,1.0,96,0.00,,,0.09,weatherlink.com 1.10,2013-07-11 23:56:00,
2013-07-11 20:11:00,71.6,70.0,29.87,South,177,0.0,1.0,96,0.00,,,0.09,weatherlink.com 1.10,2013-07-12 00:11:00,
2013-07-11 20:26:00,71.6,71.0,29.87,SSE,155,0.0,0.0,97,0.00,,,0.09,weatherlink.com 1.10,2013-07-12 00:26:00,
2013-07-11 20:56:00,71.5,70.0,29.87,SSE,155,0.0,0.0,96,0.00,,,0.09,weatherlink.com 1.10,2013-07-12 00:56:00,
2013-07-11 21:26:00,71.7,71.0,29.87,SSE,155,0.0,1.0,97,0.00,,,0.09,weatherlink.com 1.10,2013-07-12 01:26:00,
2013-07-11 21:41:00,71.8,71.0,29.87,South,183,0.0,1.0,97,0.00,,,0.09,weatherlink.com 1.10,2013-07-12 01:41:00,
2013-07-11 21:56:00,71.8,71.0,29.88,SSW,192,0.0,2.0,97,0.00,,,0.09,weatherlink.com 1.10,2013-07-12 01:56:00,
2013-07-11 22:11:00,71.7,71.0,29.87,SSW,192,0.0,0.0,97,0.00,,,0.09,weatherlink.com 1.10,2013-07-12 02:11:00,
2013-07-11 22:26:00,71.8,71.0,29.87,South,190,0.0,0.0,98,0.00,,,0.09,weatherlink.com 1.10,2013-07-12 02:26:00,
2013-07-11 22:41:00,71.9,71.0,29.88,South,190,0.0,0.0,97,0.00,,,0.09,weatherlink.com 1.10,2013-07-12 02:41:00,
2013-07-11 22:56:00,71.4,70.0,29.88,SW,225,0.0,1.0,96,0.00,,,0.09,weatherlink.com 1.10,2013-07-12 02:56:00,
2013-07-11 23:11:00,70.6,69.0,29.87,SSE,157,0.0,1.0,95,0.00,,,0.09,weatherlink.com 1.10,2013-07-12 03:11:00,
2013-07-11 23:26:00,70.3,69.0,29.87,SSE,157,0.0,0.0,96,0.00,,,0.09,weatherlink.com 1.10,2013-07-12 03:26:00,
2013-07-11 23:41:00,70.1,69.0,29.87,SSE,160,0.0,1.0,96,0.00,,,0.09,weatherlink.com 1.10,2013-07-12 03:41:00,
2013-07-11 23:56:00,69.9,69.0,29.88,SSE,160,0.0,1.0,96,0.00,,,0.09,weatherlink.com 1.10,2013-07-12 03:56:00,